This demonstration page uses our WeatherBlox Daily Observations layout. Learn more.

Left ArrowRight Arrow

38.80484, -77.04692

Hourly Observations for April 27, 2015

Temp ( °F °C ) Dew Point ( °F °C ) Humidity (%) Winds ( mph kmh ) Pressure ( in mb ) Visibility ( mi km ) Precip ( " mm )
12:52 am 00:52 Partly Cloudy 50 10 39 3.9 66 66 NNW 5 7 29.74 1007 10 16 0.00 0.00
1:52 am 01:52 Partly Cloudy 54 12.2 32 0 43 43 NNE 16 26 29.74 1007 10 16 0.00 0.00
2:52 am 02:52 Partly Cloudy 52 11.1 32 0 47 47 NNE 7 11 29.75 1007 10 16 0.00 0.00
3:52 am 03:52 Partly Cloudy 50 10 33 0.6 52 52 N 7 11 29.75 1007 10 16 0.00 0.00
4:52 am 04:52 Mostly Cloudy 49 9.4 32 0 52 52 N 6 9 29.75 1008 10 16 0.00 0.00
5:52 am 05:52 Partly Cloudy 49 9.4 32 0 52 52 NNW 9 15 29.76 1008 10 16 0.00 0.00
6:52 am 06:52 Mostly Cloudy 49 9.4 33 0.6 55 55 NNW 9 15 29.77 1008 10 16 0.00 0.00
7:52 am 07:52 Partly Cloudy 53 11.7 32 0 45 45 NW 12 19 29.78 1009 10 16 0.00 0.00
8:52 am 08:52 Partly Cloudy 56 13.3 34 1.1 44 44 NNW 13 20 29.79 1009 10 16 0.00 0.00
9:52 am 09:52 Mostly Cloudy 58 14.4 35 1.7 42 42 N 12 19 29.80 1009 10 16 0.00 0.00
10:52 am 10:52 Mostly Cloudy 59 15 36 2.2 42 42 N 9 15 29.80 1009 10 16 0.00 0.00
11:52 am 11:52 Mostly Cloudy 60 15.6 36 2.2 41 41 N 10 17 29.80 1009 10 16 0.00 0.00
12:52 pm 12:52 Cloudy 58 14.4 35 1.7 42 42 NNW 15 24 29.81 1010 10 16 0.00 0.00
1:52 pm 13:52 Cloudy 58 14.4 34 1.1 41 41 NW 13 20 29.80 1009 10 16 0.00 0.00
2:52 pm 14:52 Mostly Cloudy 60 15.6 35 1.7 39 39 WNW 15 24 29.79 1009 10 16 0.00 0.00
3:52 pm 15:52 Partly Cloudy 62 16.7 34 1.1 35 35 WNW 17 28 29.78 1009 10 16 0.00 0.00
4:52 pm 16:52 Mostly Cloudy 60 15.6 32 0 35 35 WNW 16 26 29.78 1009 10 16 0.00 0.00
5:52 pm 17:52 Mostly Cloudy 60 15.6 32 0 35 35 WNW 15 24 29.81 1009 10 16 0.00 0.00
6:52 pm 18:52 Cloudy 59 15 34 1.1 39 39 NNW 15 24 29.82 1010 10 16 0.00 0.00
7:47 pm 19:47 Cloudy with Light Rain 57 14 37 3 48 48 NNW 20 31 29.83 1010 10 16 0.00 0.03
7:52 pm 19:52 Cloudy with Light Rain 57 13.9 37 2.8 47 47 NNW 20 31 29.85 1011 10 16 0.00 0.03
8:52 pm 20:52 Cloudy 55 12.8 38 3.3 53 53 N 12 19 29.86 1011 10 16 0.00 0.03
9:52 pm 21:52 Cloudy 54 12.2 39 3.9 57 57 NW 9 15 29.88 1012 10 16 0.00 0.00
10:52 pm 22:52 Mostly Cloudy 53 11.7 38 3.3 57 57 NW 17 28 29.88 1012 10 16 0.00 0.00
11:52 pm 23:52 Partly Cloudy 52 11.1 37 2.8 57 57 NW 14 22 29.90 1013 10 16 0.00 0.00

Powered by AerisWeather